Date String (YYYY-MM-DD hh:mm:ss) UTC,Instrument flags,absolute air pressure of the measurement (hPa),sample flow rate (lpm),inlet stack bypass flow (lpm),air temperature of the measurement (°C),ambient temperature measured by the external sensor (°C),aerosol sample conditioner tube jacket temperature (°C),OPC LED temperature (°C),internal box temperature (°C),relative humidity of the measurement (%),span deviation,mass concentration of particles derived from Lorenz-Mie calculation of OPC scattering (μg/m³),mass concentration of particles derived from Lorenz-Mie calculation of OPC scattering (μg/m³),mass concentration of particles derived from Lorenz-Mie calculation of OPC scattering (μg/m³)
DateTimeUTC,F1_M11,P_M11,Q1_M11,Q2_M11,T1_M11,T2_M11,T3_M11,T4_M11,T5_M11,U1_M11,ZSPAN_M11,X2_M11,X0_M11,X1_M11
2023-09-08 01:00:00,SystemResetWarning,0832.5,5.00,000.00,027.5,025.4,000.0,035.7,029.1,17.1,0000.0,0003.40,0016.68,0001.64
2023-09-08 01:01:00,SystemResetWarning,0832.5,4.99,000.00,027.6,025.8,000.0,035.7,029.2,17.1,0000.0,0003.42,0015.98,0001.65
2023-09-08 01:02:00,SystemResetWarning,0832.6,5.00,000.00,027.6,026.2,000.0,035.8,029.4,17.0,0000.0,0003.42,0015.77,0001.64
2023-09-08 01:03:00,SystemResetWarning,0832.6,5.01,000.00,027.7,026.5,000.0,035.8,029.5,16.9,0000.0,0003.42,0016.71,0001.64
2023-09-08 01:04:00,SystemResetWarning,0832.6,5.00,000.00,027.8,026.6,000.0,035.8,029.5,16.8,0000.0,0003.47,0015.89,0001.64
2023-09-08 01:05:00,SystemResetWarning,0832.5,4.98,000.00,027.7,025.4,000.0,035.8,029.2,16.7,0000.0,0003.49,0015.37,0001.63
2023-09-08 01:06:00,SystemResetWarning,0832.5,5.01,000.00,027.6,024.1,000.0,035.8,028.8,16.8,0000.0,0003.49,0014.71,0001.62
2023-09-08 01:07:00,SystemResetWarning,0832.5,5.01,000.00,027.5,024.2,000.0,035.7,028.9,16.9,0000.0,0003.51,0014.75,0001.60
2023-09-08 01:08:00,SystemResetWarning,0832.6,5.00,000.00,027.5,024.5,000.0,035.7,028.8,17.0,0000.0,0003.53,0015.70,0001.59
2023-09-08 01:09:00,SystemResetWarning,0832.5,5.00,000.00,027.5,024.9,000.0,035.7,029.0,16.9,0000.0,0003.55,0016.62,0001.58
2023-09-08 01:10:00,SystemResetWarning,0832.6,5.00,000.00,027.5,025.4,000.0,035.8,029.1,16.9,0000.0,0003.60,0016.43,0001.59
2023-09-08 01:11:00,SystemResetWarning,0832.5,5.00,000.00,027.6,025.8,000.0,035.8,029.3,17.0,0000.0,0003.60,0016.51,0001.58
2023-09-08 01:12:00,SystemResetWarning,0832.5,5.00,000.00,027.6,026.1,000.0,035.8,029.4,16.7,0000.0,0003.58,0016.80,0001.59
2023-09-08 01:13:00,SystemResetWarning,0832.5,5.00,000.00,027.7,026.4,000.0,035.8,029.5,16.6,0000.0,0003.58,0020.24,0001.60
2023-09-08 01:14:00,SystemResetWarning,0832.5,5.00,000.00,027.8,026.7,000.0,035.9,029.6,16.6,0000.0,0003.59,0021.27,0001.60
2023-09-08 01:15:00,SystemResetWarning,0832.6,5.00,000.00,027.8,026.9,000.0,035.9,029.7,16.4,0000.0,0003.64,0020.88,0001.61
2023-09-08 01:16:00,SystemResetWarning,0832.5,4.99,000.00,027.8,025.9,000.0,035.9,029.3,16.4,0000.0,0003.63,0020.63,0001.62
2023-09-08 01:17:00,SystemResetWarning,0832.6,5.01,000.00,027.7,024.2,000.0,035.8,028.9,16.3,0000.0,0003.66,0020.54,0001.61
2023-09-08 01:18:00,SystemResetWarning,0832.5,5.01,000.00,027.6,024.1,000.0,035.8,028.9,16.2,0000.0,0003.62,0020.86,0001.62
2023-09-08 01:19:00,SystemResetWarning,0832.6,4.99,000.00,027.6,024.4,000.0,035.8,028.9,16.3,0000.0,0003.71,0020.94,0001.63
2023-09-08 01:20:00,SystemResetWarning,0832.5,5.00,000.00,027.5,024.8,000.0,035.8,029.0,16.4,0000.0,0003.71,0019.44,0001.62
2023-09-08 01:21:00,SystemResetWarning,0832.6,5.00,000.00,027.6,025.2,000.0,035.8,029.1,16.4,0000.0,0003.71,0019.46,0001.62
2023-09-08 01:22:00,SystemResetWarning,0832.7,5.00,000.00,027.6,025.6,000.0,035.8,029.2,16.3,0000.0,0003.78,0018.71,0001.62
2023-09-08 01:23:00,SystemResetWarning,0832.6,5.00,000.00,027.7,026.0,000.0,035.8,029.4,16.3,0000.0,0003.85,0019.44,0001.62
2023-09-08 01:24:00,SystemResetWarning,0832.7,5.00,000.00,027.7,026.3,000.0,035.9,029.5,16.3,0000.0,0003.83,0017.28,0001.60
2023-09-08 01:25:00,SystemResetWarning,0832.7,5.00,000.00,027.8,026.6,000.0,035.9,029.6,16.3,0000.0,0003.78,0014.86,0001.59
2023-09-08 01:26:00,SystemResetWarning,0832.8,5.00,000.00,027.9,026.9,000.0,036.0,029.7,16.3,0000.0,0003.75,0014.30,0001.58
2023-09-08 01:27:00,SystemResetWarning,0832.7,4.98,000.00,027.9,026.1,000.0,036.0,029.4,16.3,0000.0,0003.69,0014.44,0001.58
2023-09-08 01:28:00,SystemResetWarning,0832.7,5.01,000.00,027.7,024.3,000.0,035.9,028.9,16.3,0000.0,0003.68,0014.78,0001.58
2023-09-08 01:29:00,SystemResetWarning,0832.7,5.01,000.00,027.6,023.9,000.0,035.9,028.9,16.5,0000.0,0003.68,0014.94,0001.58
2023-09-08 01:30:00,SystemResetWarning,0832.7,5.01,000.00,027.6,024.2,000.0,035.8,028.9,16.7,0000.0,0003.61,0015.05,0001.59
2023-09-08 01:31:00,SystemResetWarning,0832.7,5.00,000.00,027.5,024.6,000.0,035.8,028.9,16.9,0000.0,0003.60,0015.62,0001.59
2023-09-08 01:32:00,SystemResetWarning,0832.7,5.00,000.00,027.5,025.0,000.0,035.8,029.1,17.0,0000.0,0003.56,0016.69,0001.59
2023-09-08 01:33:00,SystemResetWarning,0833.1,5.00,000.00,027.6,025.5,000.0,035.9,029.2,16.8,0000.0,0003.46,0017.66,0001.58
2023-09-08 01:34:00,SystemResetWarning,0832.7,5.01,000.00,027.6,025.9,000.0,035.9,029.3,16.9,0000.0,0003.40,0018.40,0001.60
2023-09-08 01:35:00,SystemResetWarning,0832.8,4.99,000.00,027.7,026.2,000.0,035.9,029.4,16.9,0000.0,0003.41,0018.00,0001.62
2023-09-08 01:36:00,SystemResetWarning,0832.7,5.00,000.00,027.8,026.5,000.0,035.9,029.5,16.5,0000.0,0003.50,0018.88,0001.64
2023-09-08 01:37:00,SystemResetWarning,0832.7,5.00,000.00,027.8,026.7,000.0,036.0,029.6,16.5,0000.0,0003.51,0021.45,0001.64
2023-09-08 01:38:00,SystemResetWarning,0832.9,4.99,000.00,027.9,026.3,000.0,036.0,029.5,16.7,0000.0,0003.55,0022.44,0001.64
2023-09-08 01:39:00,SystemResetWarning,0832.7,4.99,000.00,027.7,024.6,000.0,035.9,028.9,16.5,0000.0,0003.57,0022.59,0001.65
2023-09-08 01:40:00,SystemResetWarning,0832.7,5.01,000.00,027.6,023.8,000.0,035.9,028.7,16.3,0000.0,0003.56,0022.41,0001.66
2023-09-08 01:41:00,SystemResetWarning,0832.7,5.01,000.00,027.5,024.0,000.0,035.8,028.8,15.8,0000.0,0003.55,0021.83,0001.66
2023-09-08 01:42:00,SystemResetWarning,0832.7,5.00,000.00,027.5,024.4,000.0,035.8,028.8,15.7,0000.0,0003.54,0021.97,0001.65
2023-09-08 01:43:00,SystemResetWarning,0832.7,5.00,000.00,027.5,024.8,000.0,035.8,029.0,15.6,0000.0,0003.59,0022.36,0001.66
2023-09-08 01:44:00,SystemResetWarning,0832.8,5.00,000.00,027.5,025.3,000.0,035.8,029.1,15.8,0000.0,0003.66,0022.16,0001.67
2023-09-08 01:45:00,SystemResetWarning,0832.8,5.00,000.00,027.6,025.7,000.0,035.8,029.2,15.6,0000.0,0003.71,0021.67,0001.67
2023-09-08 01:46:00,SystemResetWarning,0832.8,4.99,000.00,027.6,026.0,000.0,035.9,029.4,15.7,0000.0,0003.67,0022.87,0001.68
2023-09-08 01:47:00,SystemResetWarning,0832.7,4.99,000.00,027.7,026.3,000.0,035.9,029.5,15.7,0000.0,0003.63,0023.26,0001.67
2023-09-08 01:48:00,SystemResetWarning,0832.8,5.00,000.00,027.7,026.6,000.0,035.9,029.5,15.6,0000.0,0003.60,0021.78,0001.66
2023-09-08 01:49:00,SystemResetWarning,0832.8,5.00,000.00,027.8,026.8,000.0,036.0,029.6,15.6,0000.0,0003.60,0021.17,0001.66
2023-09-08 01:50:00,SystemResetWarning,0833.1,5.00,000.00,027.9,027.0,000.0,036.0,029.7,16.0,0000.0,0003.65,0021.01,0001.67
2023-09-08 01:51:00,SystemResetWarning,0833.1,4.99,000.00,027.9,026.2,000.0,036.0,029.5,15.8,0000.0,0003.67,0020.59,0001.67
2023-09-08 01:52:00,SystemResetWarning,0833.0,5.00,000.00,027.8,024.4,000.0,035.9,028.9,16.4,0000.0,0003.65,0020.32,0001.67
2023-09-08 01:53:00,SystemResetWarning,0833.1,5.01,000.00,027.7,023.9,000.0,035.9,028.8,16.8,0000.0,0003.65,0019.67,0001.68
2023-09-08 01:54:00,SystemResetWarning,0833.2,5.01,000.00,027.6,024.1,000.0,035.9,028.8,16.8,0000.0,0003.62,0017.82,0001.68
2023-09-08 01:55:00,SystemResetWarning,0833.0,4.99,000.00,027.5,024.5,000.0,035.9,028.9,17.4,0000.0,0003.56,0016.77,0001.68
2023-09-08 01:56:00,SystemResetWarning,0833.1,5.00,000.00,027.6,025.0,000.0,035.9,029.0,17.2,0000.0,0003.52,0016.41,0001.67
2023-09-08 01:57:00,SystemResetWarning,0833.0,5.00,000.00,027.6,025.4,000.0,035.9,029.2,16.8,0000.0,0003.56,0014.64,0001.67
2023-09-08 01:58:00,SystemResetWarning,0833.0,4.99,000.00,027.6,025.8,000.0,035.9,029.3,16.3,0000.0,0003.55,0013.46,0001.66
2023-09-08 01:59:00,SystemResetWarning,0833.4,4.99,000.00,027.7,026.2,000.0,035.9,029.4,16.2,0000.0,0003.57,0013.76,0001.67
